Desert Center, CA

11:38 AM PST on January 17, 2017 (GMT -0800)
Blythe

Weather History for KBLH - September, 2011

Change the Weather History Date:

Saturday, September 3, 2011

  Actual Average Record
Temperature  
Mean Temperature 96 °F -  
Max Temperature 109 °F 102 °F 115 °F (1987)
Min Temperature 84 °F 76 °F 68 °F (1999)
Cooling Degree Days 32    
Growing Degree Days 46 (Base 50)    
Moisture  
Dew Point 52 °F    
Average Humidity 25    
Maximum Humidity 52    
Minimum Humidity 10    
Precipitation  
Precipitation 0.00 in - - ()
Sea Level Pressure  
Sea Level Pressure 29.69 in    
Wind  
Wind Speed 3 mph (SSW)    
Max Wind Speed 9 mph    
Max Gust Speed -    
Visibility 10 miles    
Events      
Averages and records for this station are not official NWS values.
T = Trace of Precipitation, MM = Missing Value Source: NWS Daily Summary

Daily Weather History Graph

Daily Weather History Graph

Search for Another Location

Airport or City:

Trip Planner

Search our weather history database for the weather conditions in past years. The results will help you decide how hot, cold, wet, or windy it might be!

Date:

Astronomy

Sep. 03, 2011 Rise Set
Actual Time 6:14 AM PDT 7:01 PM PDT
Civil Twilight 5:48 AM PDT 7:27 PM PDT
Nautical Twilight 5:18 AM PDT 7:57 PM PDT
Astronomical Twilight 4:48 AM PDT 8:27 PM PDT
Moon 12:36 PM PDT (9/3) 10:53 PM PDT (9/3)
Length of Visible Light 13h 38m
Length of Day
12h 47m
Waxing Crescent, 39% of the Moon is Illuminated
Sep 3
Waxing Crescent
Sep 4
First Quarter
Sep 12
Full
Sep 20
Last Quarter
Sep 27
New

Hourly Weather History & Observations

Time (PDT) Temp. Heat Index Dew Point Humidity Pressure Visibility Wind Dir Wind Speed Gust Speed Precip Events Conditions
12:52 AM 87.1 °F 86.5 °F 59.0 °F 39% 29.70 in 10.0 mi Calm Calm - N/A   Clear
1:52 AM 88.0 °F 86.7 °F 57.0 °F 35% 29.69 in 10.0 mi SSE 4.6 mph - N/A   Clear
2:52 AM 90.0 °F 88.8 °F 57.9 °F 34% 29.68 in 10.0 mi Calm Calm - 0.00 in   Scattered Clouds
3:52 AM 87.1 °F 86.1 °F 57.9 °F 37% 29.68 in 10.0 mi Calm Calm - N/A   Clear
4:52 AM 86.0 °F 85.0 °F 57.9 °F 38% 29.69 in 10.0 mi Calm Calm - N/A   Clear
5:52 AM 84.9 °F 84.2 °F 57.9 °F 40% 29.70 in 10.0 mi NE 3.5 mph - N/A   Clear
6:52 AM 86.0 °F 85.4 °F 59.0 °F 40% 29.73 in 10.0 mi East 6.9 mph - N/A   Clear
7:52 AM 88.0 °F 90.7 °F 66.9 °F 49% 29.74 in 10.0 mi SSW 3.5 mph - N/A   Clear
8:52 AM 90.0 °F 95.4 °F 70.0 °F 52% 29.75 in 10.0 mi South 6.9 mph - N/A   Clear
9:52 AM 96.1 °F 96.0 °F 60.1 °F 30% 29.76 in 10.0 mi SW 4.6 mph - N/A   Clear
10:52 AM 99.0 °F 100.5 °F 62.1 °F 30% 29.75 in 10.0 mi Variable 3.5 mph - N/A   Clear
11:52 AM 102.0 °F - 52.0 °F 19% 29.74 in 10.0 mi Variable 3.5 mph - N/A   Clear
12:52 PM 105.1 °F - 50.0 °F 16% 29.72 in 10.0 mi Calm Calm - N/A   Clear
1:52 PM 108.0 °F - 45.0 °F 12% 29.69 in 10.0 mi Variable 3.5 mph - N/A   Clear
2:52 PM 109.9 °F - 43.0 °F 11% 29.67 in 10.0 mi SW 8.1 mph - N/A   Clear
3:52 PM 109.0 °F - 41.0 °F 10% 29.64 in 10.0 mi NW 8.1 mph - N/A   Scattered Clouds
4:52 PM 109.0 °F - 46.0 °F 12% 29.63 in 10.0 mi SE 8.1 mph - N/A   Scattered Clouds
5:52 PM 108.0 °F - 45.0 °F 12% 29.63 in 10.0 mi SE 6.9 mph - N/A   Partly Cloudy
6:52 PM 105.1 °F - 48.9 °F 15% 29.63 in 10.0 mi SE 6.9 mph - N/A   Partly Cloudy
7:52 PM 100.9 °F - 48.9 °F 17% 29.63 in 10.0 mi South 4.6 mph - N/A   Clear
8:52 PM 100.0 °F - 46.0 °F 16% 29.65 in 10.0 mi SSW 6.9 mph - N/A   Clear
9:52 PM 98.1 °F - 44.1 °F 16% 29.65 in 10.0 mi West 8.1 mph - N/A   Clear
10:52 PM 98.1 °F - 42.1 °F 15% 29.65 in 10.0 mi West 4.6 mph - N/A   Clear
11:52 PM 97.0 °F - 41.0 °F 14% 29.66 in 10.0 mi West 9.2 mph - N/A   Clear